This is the latest recevied weather packets stored in our database for station/object S53BL-10. If no packets are shown the sender has not sent any weather packets the latest 10 day(s).
| Time | Temp. | Humidity | Pressure | Rain* | Wind** | Luminosity | Snow |
|---|---|---|---|---|---|---|---|
| 1777927930 | 16.67° C | 43% | 1013.6 hPa | - | - | - | - |
| 1777927030 | 16.67° C | 41% | 1013.6 hPa | - | - | - | - |
| 1777926129 | 16.67° C | 41% | 1013.6 hPa | - | - | - | - |
| 1777925228 | 17.22° C | 40% | 1013.5 hPa | - | - | - | - |
| 1777924327 | 17.22° C | 40% | 1013.4 hPa | - | - | - | - |
| 1777923426 | 17.22° C | 40% | 1013.3 hPa | - | - | - | - |
| 1777922526 | 17.22° C | 39% | 1013.1 hPa | - | - | - | - |
| 1777921625 | 17.78° C | 38% | 1013.1 hPa | - | - | - | - |
| 1777920724 | 18.33° C | 36% | 1012.9 hPa | - | - | - | - |
| 1777919823 | 18.89° C | 35% | 1012.8 hPa | - | - | - | - |
| 1777918922 | 18.89° C | 35% | 1012.6 hPa | - | - | - | - |
| 1777918021 | 19.44° C | 34% | 1012.6 hPa | - | - | - | - |
| 1777917120 | 20° C | 34% | 1012.5 hPa | - | - | - | - |
| 1777916219 | 20.56° C | 33% | 1012.3 hPa | - | - | - | - |
| 1777915318 | 20.56° C | 33% | 1012.4 hPa | - | - | - | - |
| 1777914417 | 21.67° C | 32% | 1012.3 hPa | - | - | - | - |
| 1777913517 | 22.78° C | 31% | 1012.2 hPa | - | - | - | - |
| 1777912616 | 22.78° C | 30% | 1012.2 hPa | - | - | - | - |
| 1777911715 | 23.89° C | 30% | 1012.2 hPa | - | - | - | - |
| 1777910814 | 23.33° C | 29% | 1012.3 hPa | - | - | - | - |
| 1777909913 | 23.33° C | 28% | 1012.5 hPa | - | - | - | - |
| 1777909013 | 23.89° C | 29% | 1012.6 hPa | - | - | - | - |
| 1777908112 | 24.44° C | 26% | 1012.7 hPa | - | - | - | - |
| 1777907211 | 24.44° C | 27% | 1012.6 hPa | - | - | - | - |
| 1777906310 | 25° C | 27% | 1012.7 hPa | - | - | - | - |
* Rain since midnight (hover to see other rain measurements)
** Current wind speed in m/s (hover to see current wind gust speed)